Simultaneous Nadir Overpasses (SNOs) Predictions

Prediction of SNOs between LANDSAT-8 and NPP Satellite Orbit:

Table of predicted SNOs for the next 14.0 days since TLE Epoch: 7/30/2016
Index Date (LANDSAT-8) Time (LANDSAT-8) Lat,Lon (LANDSAT-8) SZA (LANDSAT-8 ) Date (NPP) Time (NPP) Lat,Lon (NPP) SZA (NPP ) Distance(km) Time Diff (sec)
1 07/30/2016 06:08:55 70.22, 84.42 51.81 07/30/2016 06:07:47 70.22, 84.40 51.83 0.78 68
2 07/30/2016 06:58:25 -70.10,-108.12 128.29 07/30/2016 06:58:29 -70.12,-108.13 128.27 2.10 4
3 07/30/2016 07:47:57 69.73, 59.00 51.37 07/30/2016 07:49:08 69.75, 59.73 51.35 28.14 71
4 08/01/2016 22:25:25 70.19,-159.74 52.46 08/01/2016 22:24:40 70.17,-159.75 52.45 2.27 45
5 08/01/2016 23:14:55 -70.08, 7.73 127.65 08/01/2016 23:15:22 -70.07, 7.72 127.66 1.18 27
6 08/04/2016 13:52:13 -71.08, 149.84 126.00 08/04/2016 13:51:06 -71.11, 147.19 125.87 95.30 67
7 08/04/2016 14:41:55 70.16, -43.91 53.13 08/04/2016 14:41:34 70.18, -43.98 53.15 3.37 21
8 08/04/2016 15:31:25 -70.05, 123.57 126.97 08/04/2016 15:32:16 -70.07, 123.50 126.95 3.53 51
9 08/07/2016 06:08:58 -70.23, -95.56 126.08 08/07/2016 06:07:44 -70.27, -95.67 126.02 6.05 74
10 08/07/2016 06:58:25 70.13, 71.92 53.83 08/07/2016 06:58:27 70.13, 71.87 53.84 2.26 2
11 08/07/2016 07:47:55 -70.02,-120.59 126.26 08/07/2016 07:49:09 -70.02,-120.65 126.27 2.31 74
12 08/09/2016 22:25:27 -70.20, 20.27 125.35 08/09/2016 22:24:35 -70.17, 20.26 125.36 3.08 52
13 08/09/2016 23:14:54 70.09,-172.25 54.56 08/09/2016 23:15:19 70.08,-172.29 54.55 1.71 25
14 08/10/2016 00:04:39 -69.16, -5.88 126.31 08/10/2016 00:05:45 -69.12, -3.57 126.44 91.32 66
15 08/12/2016 14:41:57 -70.16, 136.09 124.59 08/12/2016 14:41:29 -70.17, 136.03 124.57 2.85 28
16 08/12/2016 15:31:24 70.05, -56.42 55.32 08/12/2016 15:32:12 70.03, -56.44 55.30 1.65 48




NCC Satellite Simultaneous Nadir Overpasses (SNOs) Prediction Service
